#Datum;Uhrzeit;WR;Pac;DaySum;Status;WR;Pac;DaySum;Status;Pdc1;Udc;Temp;WR;Pac;DaySum;Status;Pdc1;Udc;Temp;WR;Pac;DaySum;Status;Pdc1;Udc;Temp;WR;Pac;DaySum;Status;Pdc1;Pdc2;Udc1;Udc2;Temp;WR;Pac;DaySum;Status;Pdc1;Pdc2;Udc1;Udc2;Temp;WR;Pac;DaySum;Status;Pdc1;Udc;Temp;WR;Pac;DaySum;Status;Pdc1;Udc;Temp;WR;Pac;DaySum;Status;Pdc1;Udc;Temp
08.01.18;23:55:00;1;285;19964;0;2;0;10994;0;0;0;0;3;0;7058;0;0;0;0;4;0;6990;0;0;0;0;5;0;21894;0;0;0;0;0;0;6;0;17166;0;0;0;0;0;0;7;0;16111;0;0;0;0;8;0;15632;0;0;0;0;9;0;7998;0;0;0;0
08.01.18;23:50:00;1;285;19940;0;2;0;10994;0;0;0;0;3;0;7058;0;0;0;0;4;0;6990;0;0;0;0;5;0;21894;0;0;0;0;0;0;6;0;17166;0;0;0;0;0;0;7;0;16111;0;0;0;0;8;0;15632;0;0;0;0;9;0;7998;0;0;0;0
08.01.18;23:45:00;1;274;19916;0;2;0;10994;0;0;0;0;3;0;7058;0;0;0;0;4;0;6990;0;0;0;0;5;0;21894;0;0;0;0;0;0;6;0;17166;0;0;0;0;0;0;7;0;16111;0;0;0;0;8;0;15632;0;0;0;0;9;0;7998;0;0;0;0
08.01.18;23:40:00;1;243;19893;0;2;0;10994;0;0;0;0;3;0;7058;0;0;0;0;4;0;6990;0;0;0;0;5;0;21894;0;0;0;0;0;0;6;0;17166;0;0;0;0;0;0;7;0;16111;0;0;0;0;8;0;15632;0;0;0;0;9;0;7998;0;0;0;0
08.01.18;23:35:00;1;848;19873;0;2;0;10994;0;0;0;0;3;0;7058;0;0;0;0;4;0;6990;0;0;0;0;5;0;21894;0;0;0;0;0;0;6;0;17166;0;0;0;0;0;0;7;0;16111;0;0;0;0;8;0;15632;0;0;0;0;9;0;7998;0;0;0;0
08.01.18;23:30:00;1;948;19823;0;2;0;10994;0;0;0;0;3;0;7058;0;0;0;0;4;0;6990;0;0;0;0;5;0;21894;0;0;0;0;0;0;6;0;17166;0;0;0;0;0;0;7;0;16111;0;0;0;0;8;0;15632;0;0;0;0;9;0;7998;0;0;0;0
08.01.18;23:25:00;1;2086;19724;0;2;0;10994;0;0;0;0;3;0;7058;0;0;0;0;4;0;6990;0;0;0;0;5;0;21894;0;0;0;0;0;0;6;0;17166;0;0;0;0;0;0;7;0;16111;0;0;0;0;8;0;15632;0;0;0;0;9;0;7998;0;0;0;0
08.01.18;23:20:00;1;2149;19547;0;2;0;10994;0;0;0;0;3;0;7058;0;0;0;0;4;0;6990;0;0;0;0;5;0;21894;0;0;0;0;0;0;6;0;17166;0;0;0;0;0;0;7;0;16111;0;0;0;0;8;0;15632;0;0;0;0;9;0;7998;0;0;0;0
08.01.18;23:15:00;1;1698;19367;0;2;0;10994;0;0;0;0;3;0;7058;0;0;0;0;4;0;6990;0;0;0;0;5;0;21894;0;0;0;0;0;0;6;0;17166;0;0;0;0;0;0;7;0;16111;0;0;0;0;8;0;15632;0;0;0;0;9;0;7998;0;0;0;0
08.01.18;23:10:00;1;1580;19251;0;2;0;10994;0;0;0;0;3;0;7058;0;0;0;0;4;0;6990;0;0;0;0;5;0;21894;0;0;0;0;0;0;6;0;17166;0;0;0;0;0;0;7;0;16111;0;0;0;0;8;0;15632;0;0;0;0;9;0;7998;0;0;0;0
08.01.18;23:05:00;1;425;19116;0;2;0;10994;0;0;0;0;3;0;7058;0;0;0;0;4;0;6990;0;0;0;0;5;0;21894;0;0;0;0;0;0;6;0;17166;0;0;0;0;0;0;7;0;16111;0;0;0;0;8;0;15632;0;0;0;0;9;0;7998;0;0;0;0
08.01.18;23:00:00;1;1142;19080;0;2;0;10994;0;0;0;0;3;0;7058;0;0;0;0;4;0;6990;0;0;0;0;5;0;21894;0;0;0;0;0;0;6;0;17166;0;0;0;0;0;0;7;0;16111;0;0;0;0;8;0;15632;0;0;0;0;9;0;7998;0;0;0;0
08.01.18;22:55:00;1;1502;19014;0;2;0;10994;0;0;0;0;3;0;7058;0;0;0;0;4;0;6990;0;0;0;0;5;0;21894;2;0;0;0;0;0;6;0;17166;2;0;0;0;0;0;7;0;16111;0;0;0;0;8;0;15632;0;0;0;0;9;0;7998;0;0;0;0
08.01.18;22:50:00;1;1607;18879;0;2;0;10994;0;0;0;0;3;0;7058;0;0;0;0;4;0;6990;0;0;0;0;5;0;21894;2;0;0;0;0;0;6;0;17166;2;0;0;0;0;0;7;0;16111;0;0;0;0;8;0;15632;0;0;0;0;9;0;7998;0;0;0;0
08.01.18;22:45:00;1;1753;18760;0;2;0;10994;0;0;0;0;3;0;7058;0;0;0;0;4;0;6990;0;0;0;0;5;0;21894;2;0;0;0;0;0;6;0;17166;2;0;0;0;0;0;7;0;16111;0;0;0;0;8;0;15632;0;0;0;0;9;0;7998;0;0;0;0
08.01.18;22:40:00;1;2146;18611;0;2;0;10994;0;0;0;0;3;0;7058;0;0;0;0;4;0;6990;0;0;0;0;5;0;21894;2;0;0;0;0;0;6;0;17166;2;0;0;0;0;0;7;0;16111;0;0;0;0;8;0;15632;0;0;0;0;9;0;7998;0;0;0;0
08.01.18;22:35:00;1;1661;18469;0;2;0;10994;0;0;0;0;3;0;7058;0;0;0;0;4;0;6990;0;0;0;0;5;0;21894;2;0;0;0;0;0;6;0;17166;2;0;0;0;0;0;7;0;16111;0;0;0;0;8;0;15632;0;0;0;0;9;0;7998;0;0;0;0
08.01.18;22:30:00;1;2642;18324;0;2;0;10994;0;0;0;0;3;0;7058;0;0;0;0;4;0;6990;0;0;0;0;5;0;21894;2;0;0;0;0;0;6;0;17166;2;0;0;0;0;0;7;0;16111;0;0;0;0;8;0;15632;0;0;0;0;9;0;7998;0;0;0;0
08.01.18;22:25:00;1;1335;18104;0;2;0;10994;0;0;0;0;3;0;7058;0;0;0;0;4;0;6990;0;0;0;0;5;0;21894;2;0;0;0;0;0;6;0;17166;2;0;0;0;0;0;7;0;16111;0;0;0;0;8;0;15632;0;0;0;0;9;0;7998;0;0;0;0
08.01.18;22:20:00;1;498;17995;0;2;0;10994;0;0;0;0;3;0;7058;0;0;0;0;4;0;6990;0;0;0;0;5;0;21894;2;0;0;0;0;0;6;0;17166;2;0;0;0;0;0;7;0;16111;0;0;0;0;8;0;15632;0;0;0;0;9;0;7998;0;0;0;0
08.01.18;22:15:00;1;514;17953;0;2;0;10994;0;0;0;0;3;0;7058;0;0;0;0;4;0;6990;0;0;0;0;5;0;21894;2;0;0;0;0;0;6;0;17166;2;0;0;0;0;0;7;0;16111;0;0;0;0;8;0;15632;0;0;0;0;9;0;7998;0;0;0;0
08.01.18;22:10:00;1;604;17910;0;2;0;10994;0;0;0;0;3;0;7058;0;0;0;0;4;0;6990;0;0;0;0;5;0;21894;2;0;0;0;0;0;6;0;17166;2;0;0;0;0;0;7;0;16111;0;0;0;0;8;0;15632;0;0;0;0;9;0;7998;0;0;0;0
08.01.18;22:05:00;1;547;17860;0;2;0;10994;0;0;0;0;3;0;7058;0;0;0;0;4;0;6990;0;0;0;0;5;0;21894;2;0;0;0;0;0;6;0;17166;2;0;0;0;0;0;7;0;16111;0;0;0;0;8;0;15632;0;0;0;0;9;0;7998;0;0;0;0
08.01.18;22:00:00;1;545;17814;0;2;0;10994;0;0;0;0;3;0;7058;0;0;0;0;4;0;6990;0;0;0;0;5;0;21894;2;0;0;0;0;0;6;0;17166;2;0;0;0;0;0;7;0;16111;0;0;0;0;8;0;15632;0;0;0;0;9;0;7998;0;0;0;0
08.01.18;21:55:00;1;501;17769;0;2;0;10994;0;0;0;0;3;0;7058;0;0;0;0;4;0;6990;0;0;0;0;5;0;21894;2;0;0;0;0;0;6;0;17166;2;0;0;0;0;0;7;0;16111;0;0;0;0;8;0;15632;0;0;0;0;9;0;7998;0;0;0;0
08.01.18;21:50:00;1;499;17727;0;2;0;10994;0;0;0;0;3;0;7058;0;0;0;0;4;0;6990;0;0;0;0;5;0;21894;2;0;0;0;0;0;6;0;17166;2;0;0;0;0;0;7;0;16111;0;0;0;0;8;0;15632;0;0;0;0;9;0;7998;0;0;0;0
08.01.18;21:45:00;1;696;17666;0;2;0;10994;0;0;0;0;3;0;7058;0;0;0;0;4;0;6990;0;0;0;0;5;0;21894;2;0;0;0;0;0;6;0;17166;2;0;0;0;0;0;7;0;16111;0;0;0;0;8;0;15632;0;0;0;0;9;0;7998;0;0;0;0
08.01.18;21:40:00;1;498;17615;0;2;0;10994;0;0;0;0;3;0;7058;0;0;0;0;4;0;6990;0;0;0;0;5;0;21894;2;0;0;0;0;0;6;0;17166;2;0;0;0;0;0;7;0;16111;0;0;0;0;8;0;15632;0;0;0;0;9;0;7998;0;0;0;0
08.01.18;21:35:00;1;510;17573;0;2;0;10994;0;0;0;0;3;0;7058;0;0;0;0;4;0;6990;0;0;0;0;5;0;21894;2;0;0;0;0;0;6;0;17166;2;0;0;0;0;0;7;0;16111;0;0;0;0;8;0;15632;0;0;0;0;9;0;7998;0;0;0;0
08.01.18;21:30:00;1;499;17530;0;2;0;10994;0;0;0;0;3;0;7058;0;0;0;0;4;0;6990;0;0;0;0;5;0;21894;2;0;0;0;0;0;6;0;17166;2;0;0;0;0;0;7;0;16111;0;0;0;0;8;0;15632;0;0;0;0;9;0;7998;0;0;0;0
08.01.18;21:25:00;1;502;17489;0;2;0;10994;0;0;0;0;3;0;7058;0;0;0;0;4;0;6990;0;0;0;0;5;0;21894;2;0;0;0;0;0;6;0;17166;2;0;0;0;0;0;7;0;16111;0;0;0;0;8;0;15632;0;0;0;0;9;0;7998;0;0;0;0
08.01.18;21:20:00;1;502;17447;0;2;0;10994;0;0;0;0;3;0;7058;0;0;0;0;4;0;6990;0;0;0;0;5;0;21894;2;0;0;0;0;0;6;0;17166;2;0;0;0;0;0;7;0;16111;0;0;0;0;8;0;15632;0;0;0;0;9;0;7998;0;0;0;0
08.01.18;21:15:00;1;525;17405;0;2;0;10994;0;0;0;0;3;0;7058;0;0;0;0;4;0;6990;0;0;0;0;5;0;21894;2;0;0;0;0;0;6;0;17166;2;0;0;0;0;0;7;0;16111;0;0;0;0;8;0;15632;0;0;0;0;9;0;7998;0;0;0;0
08.01.18;21:10:00;1;1278;17360;0;2;0;10994;0;0;0;0;3;0;7058;0;0;0;0;4;0;6990;0;0;0;0;5;0;21894;2;0;0;0;0;0;6;0;17166;2;0;0;0;0;0;7;0;16111;0;0;0;0;8;0;15632;0;0;0;0;9;0;7998;0;0;0;0
08.01.18;21:05:00;1;541;17284;0;2;0;10994;0;0;0;0;3;0;7058;0;0;0;0;4;0;6990;0;0;0;0;5;0;21894;2;0;0;0;0;0;6;0;17166;2;0;0;0;0;0;7;0;16111;0;0;0;0;8;0;15632;0;0;0;0;9;0;7998;0;0;0;0
08.01.18;21:00:00;1;518;17239;0;2;0;10994;0;0;0;0;3;0;7058;0;0;0;0;4;0;6990;0;0;0;0;5;0;21894;2;0;0;0;0;0;6;0;17166;2;0;0;0;0;0;7;0;16111;0;0;0;0;8;0;15632;0;0;0;0;9;0;7998;0;0;0;0
08.01.18;20:55:00;1;495;17196;0;2;0;10994;0;0;0;0;3;0;7058;0;0;0;0;4;0;6990;0;0;0;0;5;0;21894;2;0;0;0;0;0;6;0;17166;2;0;0;0;0;0;7;0;16111;0;0;0;0;8;0;15632;0;0;0;0;9;0;7998;0;0;0;0
08.01.18;20:50:00;1;496;17155;0;2;0;10994;0;0;0;0;3;0;7058;0;0;0;0;4;0;6990;0;0;0;0;5;0;21894;2;0;0;0;0;0;6;0;17166;2;0;0;0;0;0;7;0;16111;0;0;0;0;8;0;15632;0;0;0;0;9;0;7998;0;0;0;0
08.01.18;20:45:00;1;511;17113;0;2;0;10994;0;0;0;0;3;0;7058;0;0;0;0;4;0;6990;0;0;0;0;5;0;21894;2;0;0;0;0;0;6;0;17166;2;0;0;0;0;0;7;0;16111;0;0;0;0;8;0;15632;0;0;0;0;9;0;7998;0;0;0;0
08.01.18;20:40:00;1;511;17070;0;2;0;10994;0;0;0;0;3;0;7058;0;0;0;0;4;0;6990;0;0;0;0;5;0;21894;2;0;0;0;0;0;6;0;17166;2;0;0;0;0;0;7;0;16111;0;0;0;0;8;0;15632;0;0;0;0;9;0;7998;0;0;0;0
08.01.18;20:35:00;1;1127;17027;0;2;0;10994;0;0;0;0;3;0;7058;0;0;0;0;4;0;6990;0;0;0;0;5;0;21894;2;0;0;0;0;0;6;0;17166;2;0;0;0;0;0;7;0;16111;0;0;0;0;8;0;15632;0;0;0;0;9;0;7998;0;0;0;0
08.01.18;20:30:00;1;506;16955;0;2;0;10994;0;0;0;0;3;0;7058;0;0;0;0;4;0;6990;0;0;0;0;5;0;21894;2;0;0;0;0;0;6;0;17166;2;0;0;0;0;0;7;0;16111;0;0;0;0;8;0;15632;0;0;0;0;9;0;7998;0;0;0;0
08.01.18;20:25:00;1;517;16912;0;2;0;10994;0;0;0;0;3;0;7058;0;0;0;0;4;0;6990;0;0;0;0;5;0;21894;2;0;0;0;0;0;6;0;17166;2;0;0;0;0;0;7;0;16111;0;0;0;0;8;0;15632;0;0;0;0;9;0;7998;0;0;0;0
08.01.18;20:20:00;1;625;16869;0;2;0;10994;0;0;0;0;3;0;7058;0;0;0;0;4;0;6990;0;0;0;0;5;0;21894;2;0;0;0;0;0;6;0;17166;2;0;0;0;0;0;7;0;16111;0;0;0;0;8;0;15632;0;0;0;0;9;0;7998;0;0;0;0
08.01.18;20:15:00;1;616;16817;0;2;0;10994;0;0;0;0;3;0;7058;0;0;0;0;4;0;6990;0;0;0;0;5;0;21894;2;0;0;0;0;0;6;0;17166;2;0;0;0;0;0;7;0;16111;0;0;0;0;8;0;15632;0;0;0;0;9;0;7998;0;0;0;0
08.01.18;20:10:00;1;589;16767;0;2;0;10994;0;0;0;0;3;0;7058;0;0;0;0;4;0;6990;0;0;0;0;5;0;21894;2;0;0;0;0;0;6;0;17166;2;0;0;0;0;0;7;0;16111;0;0;0;0;8;0;15632;0;0;0;0;9;0;7998;0;0;0;0
08.01.18;20:05:00;1;525;16719;0;2;0;10994;0;0;0;0;3;0;7058;0;0;0;0;4;0;6990;0;0;0;0;5;0;21894;2;0;0;0;0;0;6;0;17166;2;0;0;0;0;0;7;0;16111;0;0;0;0;8;0;15632;0;0;0;0;9;0;7998;0;0;0;0
08.01.18;20:00:00;1;1229;16675;0;2;0;10994;0;0;0;0;3;0;7058;0;0;0;0;4;0;6990;0;0;0;0;5;0;21894;2;0;0;0;0;0;6;0;17166;2;0;0;0;0;0;7;0;16111;0;0;0;0;8;0;15632;0;0;0;0;9;0;7998;0;0;0;0
08.01.18;19:55:00;1;2680;16597;0;2;0;10994;0;0;0;0;3;0;7058;0;0;0;0;4;0;6990;0;0;0;0;5;0;21894;2;0;0;0;0;0;6;0;17166;2;0;0;0;0;0;7;0;16111;0;0;0;0;8;0;15632;0;0;0;0;9;0;7998;0;0;0;0
08.01.18;19:50:00;1;4118;16350;0;2;0;10994;0;0;0;0;3;0;7058;0;0;0;0;4;0;6990;0;0;0;0;5;0;21894;2;0;0;0;0;0;6;0;17166;2;0;0;0;0;0;7;0;16111;0;0;0;0;8;0;15632;0;0;0;0;9;0;7998;0;0;0;0
08.01.18;19:45:00;1;4738;16047;0;2;0;10994;0;0;0;0;3;0;7058;0;0;0;0;4;0;6990;0;0;0;0;5;0;21894;2;0;0;0;0;0;6;0;17166;2;0;0;0;0;0;7;0;16111;0;0;0;0;8;0;15632;0;0;0;0;9;0;7998;0;0;0;0
08.01.18;19:40:00;1;3663;15638;0;2;0;10994;0;0;0;0;3;0;7058;0;0;0;0;4;0;6990;0;0;0;0;5;0;21894;2;0;0;0;0;0;6;0;17166;2;0;0;0;0;0;7;0;16111;0;0;0;0;8;0;15632;0;0;0;0;9;0;7998;0;0;0;0
08.01.18;19:35:00;1;2210;15375;0;2;0;10994;0;0;0;0;3;0;7058;0;0;0;0;4;0;6990;0;0;0;0;5;0;21894;2;0;0;0;0;0;6;0;17166;2;0;0;0;0;0;7;0;16111;0;0;0;0;8;0;15632;0;0;0;0;9;0;7998;0;0;0;0
08.01.18;19:30:00;1;850;15198;0;2;0;10994;0;0;0;0;3;0;7058;0;0;0;0;4;0;6990;0;0;0;0;5;0;21894;2;0;0;0;0;0;6;0;17166;2;0;0;0;0;0;7;0;16111;0;0;0;0;8;0;15632;0;0;0;0;9;0;7998;0;0;0;0
08.01.18;19:25:00;1;1949;15112;0;2;0;10994;0;0;0;0;3;0;7058;0;0;0;0;4;0;6990;0;0;0;0;5;0;21894;2;0;0;0;0;0;6;0;17166;2;0;0;0;0;0;7;0;16111;0;0;0;0;8;0;15632;0;0;0;0;9;0;7998;0;0;0;0
08.01.18;19:20:00;1;1670;14998;0;2;0;10994;0;0;0;0;3;0;7058;0;0;0;0;4;0;6990;0;0;0;0;5;0;21894;2;0;0;0;0;0;6;0;17166;2;0;0;0;0;0;7;0;16111;0;0;0;0;8;0;15632;0;0;0;0;9;0;7998;0;0;0;0
08.01.18;19:15:00;1;2950;14872;0;2;0;10994;0;0;0;0;3;0;7058;0;0;0;0;4;0;6990;0;0;0;0;5;0;21894;2;0;0;0;0;0;6;0;17166;2;0;0;0;0;0;7;0;16111;0;0;0;0;8;0;15632;0;0;0;0;9;0;7998;0;0;0;0
08.01.18;19:10:00;1;1735;14675;0;2;0;10994;0;0;0;0;3;0;7058;0;0;0;0;4;0;6990;0;0;0;0;5;0;21894;2;0;0;0;0;0;6;0;17166;2;0;0;0;0;0;7;0;16111;0;0;0;0;8;0;15632;0;0;0;0;9;0;7998;0;0;0;0
08.01.18;19:05:00;1;873;14554;0;2;0;10994;0;0;0;0;3;0;7058;0;0;0;0;4;0;6990;0;0;0;0;5;0;21894;2;0;0;0;0;0;6;0;17166;2;0;0;0;0;0;7;0;16111;0;0;0;0;8;0;15632;0;0;0;0;9;0;7998;0;0;0;0
08.01.18;19:00:00;1;2518;14462;0;2;0;10994;0;0;0;0;3;0;7058;0;0;0;0;4;0;6990;0;0;0;0;5;0;21894;2;0;0;0;0;0;6;0;17166;2;0;0;0;0;0;7;0;16111;0;0;0;0;8;0;15632;0;0;0;0;9;0;7998;0;0;0;0
08.01.18;18:55:00;1;1402;14252;0;2;0;10994;0;0;0;0;3;0;7058;0;0;0;0;4;0;6990;0;0;0;0;5;0;21894;2;0;0;0;0;0;6;0;17166;2;0;0;0;0;0;7;0;16111;0;0;0;0;8;0;15632;0;0;0;0;9;0;7998;0;0;0;0
08.01.18;18:50:00;1;2152;14157;0;2;0;10994;0;0;0;0;3;0;7058;0;0;0;0;4;0;6990;0;0;0;0;5;0;21894;2;0;0;0;0;0;6;0;17166;2;0;0;0;0;0;7;0;16111;0;0;0;0;8;0;15632;0;0;0;0;9;0;7998;0;0;0;0
08.01.18;18:45:00;1;2506;13980;0;2;0;10994;0;0;0;0;3;0;7058;0;0;0;0;4;0;6990;0;0;0;0;5;0;21894;2;0;0;0;0;0;6;0;17166;2;0;0;0;0;0;7;0;16111;0;0;0;0;8;0;15632;0;0;0;0;9;0;7998;0;0;0;0
08.01.18;18:40:00;1;1316;13769;0;2;0;10994;0;0;0;0;3;0;7058;0;0;0;0;4;0;6990;0;0;0;0;5;0;21894;2;0;0;0;0;0;6;0;17166;2;0;0;0;0;0;7;0;16111;0;0;0;0;8;0;15632;0;0;0;0;9;0;7998;0;0;0;0
08.01.18;18:35:00;1;532;13656;0;2;0;10994;0;0;0;0;3;0;7058;0;0;0;0;4;0;6990;0;0;0;0;5;0;21894;2;0;0;0;0;0;6;0;17166;2;0;0;0;0;0;7;0;16111;0;0;0;0;8;0;15632;0;0;0;0;9;0;7998;0;0;0;0
08.01.18;18:30:00;1;566;13611;0;2;0;10994;0;0;0;0;3;0;7058;0;0;0;0;4;0;6990;0;0;0;0;5;0;21894;2;0;0;0;0;0;6;0;17166;2;0;0;0;0;0;7;0;16111;0;0;0;0;8;0;15632;0;0;0;0;9;0;7998;0;0;0;0
08.01.18;18:25:00;1;596;13563;0;2;0;10994;0;0;0;0;3;0;7058;0;0;0;0;4;0;6990;0;0;0;0;5;0;21894;2;0;0;0;0;0;6;0;17166;2;0;0;0;0;0;7;0;16111;0;0;0;0;8;0;15632;0;0;0;0;9;0;7998;0;0;0;0
08.01.18;18:20:00;1;560;13513;0;2;0;10994;0;0;0;0;3;0;7058;0;0;0;0;4;0;6990;0;0;0;0;5;0;21894;2;0;0;0;0;0;6;0;17166;2;0;0;0;0;0;7;0;16111;0;0;0;0;8;0;15632;0;0;0;0;9;0;7998;0;0;0;0
08.01.18;18:15:00;1;718;13451;0;2;0;10994;0;0;0;0;3;0;7058;0;0;0;0;4;0;6990;0;0;0;0;5;0;21894;2;0;0;0;0;0;6;0;17166;2;0;0;0;0;0;7;0;16111;0;0;0;0;8;0;15632;0;0;0;0;9;0;7998;0;0;0;0
08.01.18;18:10:00;1;1377;13394;0;2;0;10994;0;0;0;0;3;0;7058;0;0;0;0;4;0;6990;0;0;0;0;5;0;21894;2;0;0;0;0;0;6;0;17166;2;0;0;0;0;0;7;0;16111;0;0;0;0;8;0;15632;0;0;0;0;9;0;7998;0;0;0;0
08.01.18;18:05:00;1;2035;13262;0;2;0;10994;0;0;0;0;3;0;7058;0;0;0;0;4;0;6990;0;0;0;0;5;0;21894;2;0;0;0;0;0;6;0;17166;2;0;0;0;0;0;7;0;16111;0;0;0;0;8;0;15632;0;0;0;0;9;0;7998;0;0;0;0
08.01.18;18:00:00;1;1999;13087;0;2;0;10994;0;0;0;0;3;0;7058;0;0;0;0;4;0;6990;0;0;0;0;5;0;21894;2;0;0;0;0;0;6;0;17166;2;0;0;0;0;0;7;0;16111;0;0;0;0;8;0;15632;0;0;0;0;9;0;7998;0;0;0;0
08.01.18;17:55:00;1;1201;12906;0;2;0;10994;0;0;0;0;3;0;7058;0;0;0;0;4;0;6990;0;0;0;0;5;0;21894;2;0;0;0;0;0;6;0;17166;2;0;0;0;0;0;7;0;16111;0;0;0;0;8;0;15632;0;0;0;0;9;0;7998;0;0;0;0
08.01.18;17:50:00;1;517;12786;0;2;0;10994;0;0;0;0;3;0;7058;0;0;0;0;4;0;6990;0;0;0;0;5;0;21894;2;0;0;0;0;0;6;0;17166;2;0;0;0;0;0;7;0;16111;0;0;0;0;8;0;15632;0;0;0;0;9;0;7998;0;0;0;0
08.01.18;17:45:00;1;1840;12739;0;2;0;10994;0;0;0;0;3;0;7058;0;0;0;0;4;0;6990;0;0;0;0;5;0;21894;2;0;0;0;0;0;6;0;17166;2;0;0;0;0;0;7;0;16111;0;0;0;0;8;0;15632;0;0;0;0;9;0;7998;0;0;0;0
08.01.18;17:40:00;1;1980;12591;0;2;0;10994;0;0;0;0;3;0;7058;0;0;0;0;4;0;6990;0;0;0;0;5;0;21894;2;0;0;0;0;0;6;0;17166;2;0;0;0;0;0;7;0;16111;0;0;0;0;8;0;15632;0;0;0;0;9;0;7998;0;0;0;0
08.01.18;17:35:00;1;1580;12418;0;2;0;10994;0;0;0;0;3;0;7058;0;0;0;0;4;0;6990;0;0;0;0;5;0;21894;2;0;0;0;0;0;6;0;17166;2;0;0;0;0;0;7;0;16111;0;0;0;0;8;0;15632;0;0;0;0;9;0;7998;0;0;0;0
08.01.18;17:30:00;1;1170;12281;0;2;0;10994;0;0;0;0;3;0;7058;0;0;0;0;4;0;6990;0;0;0;0;5;0;21894;2;0;0;0;0;0;6;0;17166;2;0;0;0;0;0;7;0;16111;0;0;0;0;8;0;15632;0;0;0;0;9;0;7998;0;0;0;0
08.01.18;17:25:00;1;2154;12160;0;2;0;10994;0;0;0;0;3;0;7058;0;0;0;0;4;0;6990;0;0;0;0;5;0;21894;2;0;0;0;0;0;6;0;17166;2;0;0;0;0;0;7;0;16111;0;0;0;0;8;0;15632;0;0;0;0;9;0;7998;0;0;0;0
08.01.18;17:20:00;1;1957;11978;0;2;0;10994;0;0;0;0;3;0;7058;0;0;0;0;4;0;6990;0;0;0;0;5;0;21894;2;0;0;0;0;0;6;0;17166;2;0;0;0;0;0;7;0;16111;0;0;0;0;8;0;15632;0;0;0;0;9;0;7998;0;0;0;0
08.01.18;17:15:00;1;1968;11857;0;2;0;10994;0;0;0;0;3;0;7058;0;0;0;0;4;0;6990;0;0;0;0;5;0;21894;2;0;0;0;0;0;6;0;17166;2;0;0;0;0;0;7;0;16111;0;0;0;0;8;0;15632;0;0;0;0;9;0;7998;0;0;0;0
08.01.18;17:10:00;1;2430;11713;0;2;0;10994;0;0;0;0;3;0;7058;0;0;0;0;4;0;6990;0;0;0;0;5;0;21894;2;0;0;0;0;0;6;0;17166;2;0;0;0;0;0;7;0;16111;0;0;0;0;8;0;15632;0;0;0;0;9;0;7998;0;0;0;0
08.01.18;17:05:00;1;1848;11534;0;2;0;10994;0;0;0;0;3;0;7058;0;0;0;0;4;0;6990;0;0;0;0;5;0;21894;2;0;0;0;0;0;6;0;17166;2;0;0;0;0;0;7;0;16111;0;0;0;0;8;0;15632;0;0;0;0;9;0;7998;0;0;0;0
08.01.18;17:00:00;1;2121;11396;0;2;0;10994;0;0;0;0;3;0;7058;0;0;73;5;4;0;6990;0;0;0;0;5;0;21894;2;0;0;0;0;0;6;0;17166;2;0;0;0;0;0;7;0;16111;0;0;0;0;8;0;15632;0;0;0;0;9;0;7998;0;0;0;0
08.01.18;16:55:00;1;1090;11242;0;2;0;10994;0;0;226;13;3;0;7058;6;0;297;18;4;0;6990;0;0;0;0;5;0;21894;2;0;0;0;0;0;6;0;17166;2;0;0;0;0;0;7;0;16111;0;0;0;0;8;0;15632;0;0;0;0;9;0;7998;0;0;0;0
08.01.18;16:50:00;1;2227;11136;0;2;0;10994;6;0;313;16;3;0;7058;6;0;371;19;4;0;6990;2;0;80;14;5;0;21894;2;0;1;15;15;4;6;0;17166;2;0;0;0;0;0;7;0;16111;0;0;0;0;8;0;15632;0;0;0;0;9;0;7998;0;0;0;0
08.01.18;16:45:00;1;1651;10994;0;2;0;10994;6;0;349;17;3;0;7058;6;2;412;19;4;0;6990;1;0;120;14;5;0;21894;1;0;0;271;270;20;6;0;17166;1;5;2;144;330;19;7;0;16111;0;0;216;15;8;0;15632;0;0;214;15;9;0;7998;0;0;224;11
08.01.18;16:40:00;1;1938;10864;0;2;0;10994;6;0;374;17;3;0;7058;6;4;432;19;4;0;6990;1;0;162;15;5;0;21894;23;0;0;397;421;26;6;0;17166;23;6;3;197;524;24;7;0;16111;6;0;336;20;8;0;15632;6;0;335;19;9;0;7998;6;0;343;14
08.01.18;16:35:00;1;1657;10727;0;2;0;10994;6;0;390;18;3;0;7058;6;3;466;20;4;0;6990;1;0;193;15;5;0;21894;26;0;0;416;613;26;6;0;17166;23;3;10;503;255;24;7;0;16111;6;0;391;20;8;0;15632;6;0;392;19;9;0;7998;6;0;411;15
08.01.18;16:30:00;1;2607;10591;0;2;0;10994;6;0;403;18;3;1;7058;6;4;492;20;4;0;6990;1;0;211;16;5;2;21893;4;0;0;424;665;26;6;0;17166;23;4;7;251;512;25;7;1;16111;3;2;411;20;8;0;15632;4;0;427;20;9;1;7998;3;1;447;15
08.01.18;16:25:00;1;2822;10355;0;2;3;10994;6;9;403;19;3;0;7057;6;6;502;20;4;0;6990;3;0;206;16;5;70;21892;4;6;21;375;596;28;6;13;17166;23;17;25;497;561;26;7;1;16111;6;5;448;21;8;0;15632;3;6;425;20;9;1;7998;6;3;486;15
08.01.18;16:20:00;1;1681;10127;0;2;4;10994;6;9;409;20;3;0;7057;4;5;491;21;4;0;6990;3;0;220;16;5;86;21886;4;17;19;375;596;28;6;58;17165;4;31;40;484;460;27;7;0;16110;6;4;464;21;8;1;15632;6;4;464;21;9;1;7998;6;3;507;16
08.01.18;16:15:00;1;710;9999;0;2;32;10993;6;58;368;21;3;7;7057;3;17;488;21;4;1;6990;3;1;199;17;5;109;21878;4;33;32;375;596;28;6;74;17160;4;45;59;484;460;27;7;2;16110;6;8;467;22;8;5;15632;6;17;445;21;9;2;7997;6;5;514;16
08.01.18;16:10:00;1;621;9939;0;2;63;10991;4;96;355;22;3;5;7057;6;11;528;22;4;11;6990;3;12;198;17;5;140;21869;4;45;48;375;596;28;6;95;17153;4;40;53;484;460;27;7;32;16110;6;62;411;23;8;24;15631;6;49;420;22;9;1;7997;6;5;535;17
08.01.18;16:05:00;1;820;9887;0;2;126;10986;4;163;377;23;3;43;7056;6;69;528;22;4;44;6989;3;46;198;17;5;194;21857;4;76;67;375;596;28;6;138;17145;4;75;94;484;460;27;7;97;16108;4;132;441;23;8;70;15629;4;106;445;22;9;4;7997;4;9;539;17
08.01.18;16:00:00;1;1855;9818;0;2;512;10976;4;562;387;24;3;198;7053;4;238;447;23;4;143;6985;3;149;201;17;5;273;21841;4;118;111;375;596;28;6;272;17133;4;131;181;510;522;27;7;439;16100;4;488;454;24;8;141;15624;4;180;442;23;9;18;7997;3;25;537;17
08.01.18;15:55:00;1;529;9687;0;2;738;10934;4;796;388;25;3;392;7037;4;437;429;24;4;194;6974;5;202;200;17;5;514;21817;4;203;247;413;656;29;6;597;17109;4;322;346;600;576;27;7;736;16064;4;797;479;24;8;238;15612;4;279;395;23;9;68;7995;4;99;482;18
08.01.18;15:50:00;1;499;9643;0;2;1034;10873;4;1103;393;26;3;558;7004;4;610;436;24;4;238;6958;5;247;207;18;5;1025;21772;4;468;478;426;704;29;6;898;17057;4;457;461;603;574;27;7;1113;16004;4;1180;470;24;8;573;15592;4;617;441;24;9;87;7989;4;118;486;19
08.01.18;15:45:00;1;1109;9597;0;2;1192;10787;4;1266;393;26;3;644;6958;4;699;442;25;4;261;6938;5;272;199;18;5;1300;21684;4;608;614;413;704;29;6;1090;16980;4;539;541;603;576;27;7;1369;15912;4;1441;494;25;8;924;15546;4;979;433;24;9;104;7982;4;139;514;19
08.01.18;15:40:00;1;570;9526;0;2;1288;10688;4;1363;390;27;3;697;6904;4;755;444;25;4;284;6916;5;296;203;18;5;1454;21575;4;677;673;397;705;29;6;1234;16889;4;628;635;608;584;28;7;1844;15798;4;1935;498;25;8;1258;15469;4;1329;429;24;9;115;7973;4;146;480;19
08.01.18;15:35:00;1;443;9479;0;2;1193;10581;4;1263;394;27;3;638;6846;4;694;447;25;4;282;6892;5;294;216;18;5;1400;21455;4;657;636;420;699;29;6;1169;16787;4;592;598;604;580;28;7;1719;15645;4;1813;491;25;8;1381;15365;4;1458;461;25;9;124;7964;4;150;366;20
08.01.18;15:30:00;1;547;9441;0;2;1508;10481;4;1593;397;28;3;822;6793;4;882;441;26;4;332;6869;5;346;217;19;5;1737;21332;4;897;760;412;717;30;6;1473;16689;4;748;751;576;572;28;7;2342;15500;4;2462;483;26;8;2016;15249;4;2115;474;25;9;273;7953;4;305;358;21
08.01.18;15:25:00;1;528;9396;0;2;834;10356;4;892;381;28;3;455;6724;4;503;458;26;4;230;6841;5;240;229;19;5;1274;21184;4;650;551;423;650;30;6;926;16573;4;468;473;535;517;28;7;1463;15306;4;1539;468;26;8;1465;15081;4;1545;470;25;9;322;7931;4;354;378;22
08.01.18;15:20:00;1;533;9351;0;2;1547;10289;4;1639;413;30;3;822;6688;4;882;442;27;4;366;6822;5;381;216;19;5;1647;21097;4;846;717;437;682;30;6;1547;16509;4;770;802;611;578;28;7;2020;15189;4;2118;469;26;8;1705;14964;4;1804;499;26;9;516;7905;4;561;395;22
08.01.18;15:15:00;1;522;9307;0;2;1808;10165;4;1907;409;31;3;968;6622;4;1033;450;27;4;421;6793;5;439;230;19;5;2098;20921;4;1058;926;430;707;30;6;1902;16375;4;979;962;616;586;28;7;1474;15032;4;1552;454;27;8;1783;14832;4;1880;532;26;9;739;7865;4;786;453;23
08.01.18;15:10:00;1;505;9263;0;2;1942;10016;4;2050;410;31;3;1115;6542;4;1191;476;28;4;436;6758;5;454;232;19;5;2536;20723;4;1333;1102;444;718;31;6;2090;16222;4;1068;1054;616;579;28;7;2301;14916;4;2416;518;27;8;2571;14681;4;2693;453;26;9;1109;7802;4;1179;475;24
08.01.18;15:05:00;1;768;9221;0;2;1992;9854;4;2105;416;32;3;1204;6450;4;1287;501;29;4;489;6722;5;509;231;20;5;2887;20511;4;1530;1265;441;704;31;6;2189;16056;4;1133;1121;606;581;28;7;2386;14728;4;2508;523;27;8;2543;14468;4;2667;476;27;9;1226;7713;4;1314;546;25
08.01.18;15:00:00;1;417;9153;0;2;2203;9689;4;2323;413;32;3;1380;6350;4;1470;515;29;4;536;6681;5;559;234;20;5;3273;20268;4;1758;1443;437;699;31;6;2498;15872;4;1302;1274;607;582;29;7;2229;14528;4;2334;482;28;8;1551;14258;4;1642;530;27;9;849;7611;4;932;555;25
08.01.18;14:55:00;1;474;9115;0;2;2281;9506;4;2404;408;33;3;1458;6235;4;1552;522;29;4;574;6637;5;598;232;20;5;3482;19995;4;1860;1532;437;701;31;6;2638;15663;4;1359;1322;606;581;29;7;2718;14338;4;2856;450;28;8;2474;14119;4;2599;479;27;9;1159;7536;4;1237;584;26
08.01.18;14:50:00;1;518;9076;0;2;2344;9316;4;2469;411;33;3;1508;6114;4;1603;521;29;4;606;6589;5;631;234;20;5;3652;19704;4;1959;1622;437;705;31;6;2781;15443;4;1433;1399;606;582;29;7;2959;14118;4;3126;486;28;8;2295;13922;4;2428;531;28;9;1233;7438;4;1322;541;26
08.01.18;14:45:00;1;500;9032;0;2;2409;9121;4;2542;411;34;3;1520;5989;4;1616;521;30;4;631;6539;5;657;238;21;5;3836;19398;4;2060;1706;439;697;31;6;2915;15211;4;1495;1449;604;581;29;7;2630;13871;4;2774;486;29;8;2907;13727;4;3054;495;28;9;1763;7335;4;1874;545;27
08.01.18;14:40:00;1;502;8990;0;2;2496;8920;4;2634;409;34;3;1601;5863;4;1699;522;30;4;687;6486;5;715;232;21;5;4036;19077;4;2176;1790;436;701;31;6;3058;14967;4;1578;1541;605;581;29;7;3008;13675;4;3167;491;29;8;3265;13480;4;3407;480;28;9;1596;7189;4;1695;553;27
08.01.18;14:35:00;1;476;8949;0;2;2539;8712;4;2676;403;34;3;1631;5730;4;1734;523;30;4;720;6429;5;750;226;21;5;4182;18741;4;2241;1858;437;697;31;6;3178;14711;4;1639;1593;605;581;29;7;3728;13423;4;3897;490;29;8;3289;13207;4;3432;482;29;9;1392;7057;4;1481;555;28
08.01.18;14:30:00;1;711;8909;0;2;2613;8500;4;2756;410;34;3;1686;5594;4;1788;520;30;4;744;6369;5;775;229;21;5;4367;18391;4;2363;1935;435;695;31;6;3322;14446;4;1714;1676;605;581;29;7;3537;13119;4;3701;483;29;8;3771;12927;4;3958;480;29;9;1633;6931;4;1741;521;28
08.01.18;14:25:00;1;475;8840;0;2;2668;8283;4;2814;408;34;3;1721;5454;4;1824;520;30;4;771;6307;5;803;231;22;5;4547;18026;4;2467;2018;434;693;31;6;3448;14168;4;1788;1731;604;579;29;7;3440;12835;4;3604;488;29;8;3899;12613;4;4069;475;29;9;1662;6798;4;1770;517;28
08.01.18;14:20:00;1;482;8800;0;2;2712;8060;4;2854;406;34;3;1746;5310;4;1853;521;30;4;801;6242;5;834;222;22;5;4683;17646;4;2558;2085;434;690;31;6;3565;13879;4;1849;1801;599;576;29;7;4096;12548;4;4293;478;29;8;4021;12287;4;4216;475;29;9;2209;6659;4;2335;527;29
08.01.18;14:15:00;1;410;8759;0;2;2724;7834;4;2871;402;34;3;1749;5165;4;1853;519;30;4;846;6176;5;881;206;22;5;4804;17254;4;2620;2139;431;698;31;6;3651;13582;4;1885;1829;597;578;29;7;4157;12207;4;4356;477;29;8;4029;11953;4;4224;468;29;9;1969;6474;4;2088;523;29
08.01.18;14:10:00;1;410;8725;0;2;2761;7608;4;2914;408;34;3;1792;5019;4;1895;515;30;4;890;6106;5;927;217;22;5;4925;16854;4;2694;2192;431;691;31;6;3749;13278;4;1933;1880;599;573;29;7;3256;11862;4;3429;481;29;8;3535;11619;4;3707;478;29;9;1689;6322;4;1789;517;29